1522670400.85,34741,9.44,72414.0,-8.27,-9.61,-9.53,0,*59
1522670402.11,34742,9.44,72420.5,-8.27,-9.53,-9.41,0,*58
1522670403.39,34743,9.44,72420.3,-8.27,-9.37,-9.37,0,*5A
1522670404.61,34744,9.38,72422.5,-8.27,-9.27,-9.23,0,*59
1522670405.89,34745,9.44,72424.3,-8.27,-9.15,-9.15,0,*5C
1522670407.11,34746,9.44,72422.0,-8.27,-9.05,-8.97,0,*55
1522670408.33,34747,9.44,72404.3,-8.27,-9.05,-8.93,0,*50
1522670409.57,34748,9.44,72394.3,-8.27,-8.93,-8.85,0,*56
1522670410.79,34749,9.44,72396.8,-8.27,-8.93,-8.93,0,*50
1522670412.04,34750,9.44,72396.8,-8.27,-8.93,-8.81,0,*5B
1522670413.26,34751,9.44,72378.0,-8.27,-8.97,-8.93,0,*5D
1522670414.48,34752,9.44,72370.0,-8.27,-8.97,-8.93,0,*5E
1522670415.7,34753,9.44,72330.5,-8.27,-8.97,-8.97,0,*5B
1522670416.92,34754,9.44,72364.5,-8.27,-9.05,-8.97,0,*56
1522670418.17,34755,9.44,72368.5,-8.27,-9.11,-8.93,0,*56
1522670419.4,34756,9.44,72368.3,-8.27,-9.05,-8.93,0,*50
1522670420.62,34757,9.44,72378.5,-8.27,-9.05,-8.97,0,*55
1522670421.9,34758,9.44,72396.0,-8.27,-9.11,-9.11,0,*50
1522670423.15,34759,9.44,72358.8,-8.27,-9.11,-8.97,0,*5E
1522670424.4,34760,9.44,72372.8,-8.27,-9.11,-8.97,0,*54
1522670425.66,34761,9.44,72382.5,-8.27,-9.11,-9.05,0,*5F
1522670426.91,34762,9.44,72372.8,-8.27,-9.11,-9.05,0,*5C
1522670428.13,34763,9.44,72388.8,-8.27,-9.05,-9.05,0,*58
1522670429.39,34764,9.44,72386.5,-8.25,-9.11,-9.11,0,*5D
1522670430.66,34765,9.44,72394.8,-8.27,-9.11,-9.11,0,*5E
1522670431.89,34766,9.44,72392.8,-8.27,-9.05,-9.05,0,*5D
1522670433.14,34767,9.44,72394.5,-8.27,-9.11,-8.97,0,*53
1522670434.42,34768,9.44,72402.8,-8.27,-9.11,-9.11,0,*53
1522670435.7,34769,9.44,72406.5,-8.27,-9.11,-9.11,0,*52
1522670436.92,34770,9.44,72392.0,-8.27,-9.05,-9.05,0,*5A
1522670438.14,34771,9.44,72412.3,-8.27,-8.97,-8.93,0,*5F
1522670439.37,34772,9.44,72390.0,-8.27,-8.93,-8.85,0,*5F
1522670440.6,34773,9.44,72418.3,-8.27,-8.97,-8.85,0,*5A
1522670441.82,34774,9.44,72422.5,-8.27,-8.97,-8.85,0,*5D
1522670443.05,34775,9.44,72424.5,-8.27,-8.93,-8.85,0,*58
1522670444.28,34776,9.44,72404.5,-8.27,-8.93,-8.85,0,*5B
1522670445.53,34777,9.44,72396.8,-8.27,-8.93,-8.81,0,*5E
1522670446.77,34778,9.44,72386.5,-8.27,-8.93,-8.81,0,*51
1522670448.0,34779,9.44,72372.0,-8.27,-8.97,-8.85,0,*50
1522670449.22,34780,9.44,72382.8,-8.27,-8.97,-8.97,0,*55
1522670450.44,34781,9.44,72408.5,-8.25,-9.23,-9.15,0,*53
1522670451.67,34782,9.44,72422.3,-8.25,-9.15,-9.23,0,*50
1522670452.91,34783,9.44,72428.0,-8.27,-9.23,-9.15,0,*53
1522670454.19,34784,9.44,72426.8,-8.27,-9.37,-9.37,0,*51
1522670455.41,34785,9.44,72432.0,-8.27,-9.27,-9.27,0,*50
1522670456.61,34786,9.44,72432.5,-8.25,-9.27,-9.23,0,*55
1522670457.88,34787,9.44,72426.3,-8.27,-9.15,-9.15,0,*52
1522670459.16,34788,9.44,72420.0,-8.27,-9.15,-9.11,0,*59
1522670460.39,34789,9.44,72400.0,-8.27,-9.05,-8.97,0,*56
1522670461.64,34790,9.44,72408.5,-8.27,-9.11,-8.93,0,*5F
1522670462.86,34791,9.44,72412.5,-8.27,-9.05,-8.97,0,*5F
1522670464.11,34792,9.44,72428.5,-8.27,-9.11,-9.05,0,*53
1522670465.32,34793,9.44,72418.0,-8.25,-9.05,-9.05,0,*55
1522670466.55,34794,9.44,72422.5,-8.25,-9.11,-9.05,0,*57
1522670467.77,34795,9.44,72442.0,-8.27,-8.97,-8.97,0,*51
1522670469.02,34796,9.44,72426.3,-8.27,-9.11,-8.97,0,*5D
1522670470.24,34797,9.44,72438.3,-8.27,-9.05,-8.97,0,*59
1522670471.46,34798,9.44,72430.3,-8.27,-9.05,-8.97,0,*56
1522670472.66,34799,9.44,72414.8,-8.25,-9.05,-8.97,0,*55
1522670473.89,34800,9.44,72412.3,-8.27,-9.05,-8.97,0,*58
1522670475.11,34801,9.44,72410.3,-8.27,-9.05,-9.05,0,*53
1522670476.39,34802,9.44,72412.0,-8.27,-9.11,-9.11,0,*50
1522670477.64,34803,9.44,72424.5,-8.27,-9.23,-9.15,0,*54
1522670478.91,34804,9.44,72436.5,-8.27,-9.15,-9.15,0,*56
1522670480.15,34805,9.44,72426.5,-8.25,-9.15,-9.05,0,*54
1522670481.43,34806,9.44,72430.0,-8.27,-9.15,-9.11,0,*50
1522670482.65,34807,9.44,72440.0,-8.25,-9.11,-9.05,0,*52
1522670483.91,34808,9.44,72444.0,-8.25,-9.11,-9.11,0,*58
1522670485.13,34809,9.44,72428.3,-8.27,-9.05,-8.97,0,*51
1522670486.33,34810,9.44,72420.8,-8.25,-9.05,-9.05,0,*51
1522670487.53,34811,9.44,72428.0,-8.25,-8.97,-8.93,0,*54
1522670488.78,34812,9.44,72426.8,-8.27,-9.11,-9.05,0,*54
1522670490.01,34813,9.44,72418.8,-8.25,-9.15,-9.05,0,*53
1522670491.3,34814,9.44,72418.3,-8.27,-9.15,-9.11,0,*53
1522670492.55,34815,9.44,72418.0,-8.25,-9.15,-9.11,0,*50
1522670493.83,34816,9.44,72414.0,-8.27,-9.15,-9.11,0,*51
1522670495.06,34817,9.44,72412.3,-8.25,-9.23,-9.11,0,*57
1522670496.28,34818,9.44,72400.3,-8.27,-9.23,-9.23,0,*5B
1522670497.55,34819,9.44,72418.3,-8.27,-9.37,-9.37,0,*5A
1522670498.78,34820,9.44,72422.8,-8.25,-9.41,-9.27,0,*52
1522670500.06,34821,9.44,72432.3,-8.27,-9.37,-9.37,0,*51
1522670501.25,34822,9.44,72424.8,-8.25,-9.27,-9.23,0,*54
1522670502.5,34823,9.44,72420.3,-8.27,-9.27,-9.15,0,*52
1522670503.74,34824,9.44,72408.8,-8.27,-9.23,-9.15,0,*51
1522670504.97,34825,9.44,72426.3,-8.27,-9.05,-9.05,0,*55
1522670506.2,34826,9.44,72428.8,-8.25,-9.11,-9.05,0,*51
1522670507.45,34827,9.44,72442.3,-8.27,-9.11,-9.05,0,*52
1522670508.7,34828,9.44,72438.5,-8.27,-9.11,-9.05,0,*5D
1522670509.9,34829,9.44,72440.3,-8.25,-9.05,-9.05,0,*5B
1522670511.15,34830,9.44,72434.0,-8.27,-9.11,-9.05,0,*54
1522670512.38,34831,9.44,72422.3,-8.27,-9.05,-8.97,0,*5A
1522670513.63,34832,9.44,72422.3,-8.27,-9.11,-8.97,0,*5C
1522670514.86,34833,9.44,72426.3,-8.25,-9.11,-8.97,0,*5F
1522670516.09,34834,9.44,72422.8,-8.25,-9.11,-9.05,0,*52
1522670517.31,34835,9.44,72410.8,-8.27,-9.05,-9.05,0,*54
1522670518.51,34836,9.44,72408.3,-8.25,-9.05,-9.05,0,*55
1522670519.71,34837,9.44,72408.3,-8.25,-9.05,-8.97,0,*5E
1522670520.96,34838,9.44,72410.5,-8.27,-9.11,-8.97,0,*56
1522670522.21,34839,9.44,72410.0,-8.27,-9.11,-9.05,0,*5D
1522670523.5,34840,9.44,72410.8,-8.27,-9.15,-9.11,0,*52
1522670524.78,34841,9.44,72420.5,-8.27,-9.15,-9.11,0,*53
1522670526.0,34842,9.44,72418.0,-8.25,-9.23,-9.11,0,*57
1522670527.26,34843,9.44,72416.5,-8.25,-9.15,-9.15,0,*57
1522670528.53,34844,9.44,72422.0,-8.27,-9.15,-9.11,0,*56
1522670529.81,34845,9.44,72424.3,-8.27,-9.11,-9.11,0,*53
1522670531.06,34846,9.44,72424.0,-8.27,-9.11,-9.05,0,*55
1522670532.29,34847,9.44,72434.0,-8.25,-9.05,-9.11,0,*56
1522670533.54,34848,9.44,72438.3,-8.27,-9.11,-9.05,0,*5B
1522670534.77,34849,9.44,72446.3,-8.27,-9.05,-9.05,0,*5F
1522670535.97,34850,9.44,72440.0,-8.25,-9.05,-9.05,0,*55
1522670537.22,34851,9.44,72438.0,-8.27,-9.11,-9.05,0,*53
1522670538.45,34852,9.44,72460.8,-8.27,-9.05,-9.05,0,*55
1522670539.68,34853,9.44,72450.0,-8.25,-9.11,-9.05,0,*53
1522670540.9,34854,9.44,72454.3,-8.27,-9.05,-8.97,0,*59
1522670542.13,34855,9.44,72452.8,-8.27,-8.93,-8.85,0,*55
1522670543.35,34856,9.44,72450.3,-8.27,-8.97,-8.85,0,*52
1522670544.58,34857,9.44,72446.0,-8.27,-8.93,-8.85,0,*57
1522670545.78,34858,9.44,72432.5,-8.25,-8.85,-8.71,0,*56
1522670547.01,34859,9.44,72418.3,-8.27,-8.85,-8.71,0,*55
1522670548.22,34860,9.44,72410.0,-8.25,-8.85,-8.85,0,*56
1522670549.44,34861,9.44,72416.3,-8.25,-8.85,-8.81,0,*53
1522670550.68,34862,9.44,72448.3,-8.27,-8.93,-8.81,0,*55
1522670551.91,34863,9.44,72434.3,-8.25,-9.11,-9.05,0,*50
1522670553.11,34864,9.44,72434.5,-8.25,-9.05,-8.97,0,*58
1522670554.31,34865,9.44,72436.3,-8.25,-8.97,-8.97,0,*53
1522670555.51,34866,9.44,72432.8,-8.25,-8.97,-8.97,0,*50
1522670556.76,34867,9.44,72442.5,-8.27,-9.11,-8.97,0,*5C
1522670558.04,34868,9.44,72450.3,-8.27,-9.11,-9.11,0,*5C
1522670559.31,34869,9.44,72440.0,-8.27,-9.11,-9.11,0,*5D
1522670560.52,34870,9.44,72434.8,-8.25,-8.93,-8.85,0,*50
1522670561.77,34871,9.44,72430.0,-8.27,-8.85,-8.81,0,*50
1522670562.99,34872,9.44,72454.0,-8.25,-8.85,-8.81,0,*51
1522670564.2,34873,9.44,72442.0,-8.25,-8.93,-8.85,0,*53
1522670565.43,34874,9.44,72446.0,-8.27,-8.93,-8.85,0,*56
1522670566.63,34875,9.44,72456.0,-8.25,-8.93,-8.93,0,*52
1522670567.85,34876,9.44,72448.0,-8.25,-8.93,-8.81,0,*52
1522670569.06,34877,9.44,72438.5,-8.25,-8.93,-8.85,0,*57
1522670570.27,34878,9.44,72420.5,-8.25,-8.93,-8.85,0,*58
1522670571.48,34879,9.44,72420.0,-8.25,-8.93,-8.85,0,*59
1522670572.72,34880,9.44,72434.5,-8.27,-8.85,-8.81,0,*5E
1522670573.94,34881,9.44,72438.3,-8.25,-8.93,-8.81,0,*5A
1522670575.17,34882,9.44,72442.8,-8.25,-8.93,-8.81,0,*59
1522670576.39,34883,9.44,72434.5,-8.23,-8.75,-8.75,0,*5D
1522670577.63,34884,9.44,72436.0,-8.23,-8.81,-8.75,0,*51
1522670578.87,34885,9.44,72436.8,-8.23,-8.81,-8.75,0,*50
1522670580.08,34886,9.44,72450.5,-8.25,-8.85,-8.85,0,*5E
1522670581.32,34887,9.44,72440.3,-8.25,-8.81,-8.81,0,*5F
1522670582.56,34888,9.44,72446.8,-8.23,-8.81,-8.75,0,*5D
1522670583.8,34889,9.44,72448.8,-8.23,-8.81,-8.75,0,*5C
1522670585.03,34890,9.44,72446.8,-8.23,-8.89,-8.75,0,*5C
1522670586.25,34891,9.44,72440.0,-8.25,-8.85,-8.81,0,*5C
1522670587.49,34892,9.44,72436.0,-8.23,-8.81,-8.75,0,*56
1522670588.74,34893,9.44,72426.8,-8.23,-8.89,-8.81,0,*54
1522670589.95,34894,9.44,72430.3,-8.21,-9.01,-8.89,0,*58
1522670591.18,34895,9.44,72430.8,-8.23,-9.01,-8.93,0,*50
1522670592.42,34896,9.44,72422.0,-8.23,-8.93,-8.89,0,*52
1522670593.64,34897,9.44,72420.0,-8.23,-8.89,-8.67,0,*58
1522670594.88,34898,9.44,72426.3,-8.23,-8.75,-8.81,0,*5C
1522670596.1,34899,9.44,72426.8,-8.23,-8.75,-8.67,0,*55
1522670597.33,34900,9.44,72400.0,-8.23,-8.81,-8.67,0,*5F
1522670598.58,34901,9.44,72394.0,-8.23,-8.93,-8.81,0,*55
1522670599.81,34902,9.44,72396.8,-8.23,-8.89,-8.75,0,*56
1522670601.06,34903,9.44,72390.8,-8.23,-8.89,-8.81,0,*5C
1522670602.27,34904,9.44,72394.5,-8.21,-8.81,-8.67,0,*59
1522670603.47,34905,9.44,72394.0,-8.21,-8.75,-8.67,0,*53
1522670604.69,34906,9.44,72396.3,-8.23,-8.75,-8.63,0,*56
1522670605.9,34907,9.44,72392.8,-8.23,-8.75,-8.67,0,*53
1522670607.14,34908,9.44,72412.5,-8.23,-8.81,-8.67,0,*57
1522670608.38,34909,9.44,72414.5,-8.23,-8.81,-8.63,0,*52
1522670609.6,34910,9.44,72420.3,-8.23,-8.75,-8.67,0,*55
1522670610.84,34911,9.44,72416.3,-8.23,-8.81,-8.63,0,*5B
1522670612.08,34912,9.44,72414.8,-8.23,-8.81,-8.63,0,*58
1522670613.32,34913,9.44,72416.0,-8.23,-8.81,-8.75,0,*5E
1522670614.56,34914,9.44,72412.3,-8.23,-8.81,-8.75,0,*59
1522670615.8,34915,9.44,72398.5,-8.23,-8.81,-8.75,0,*58
1522670617.07,34916,9.44,72408.3,-8.23,-8.81,-8.81,0,*50
1522670618.32,34917,9.44,72408.0,-8.23,-8.89,-8.81,0,*59
1522670619.57,34918,9.44,72410.3,-8.23,-8.89,-8.81,0,*56
1522670620.81,34919,9.44,72414.3,-8.23,-8.75,-8.81,0,*54
1522670622.01,34920,9.44,72420.5,-8.21,-8.89,-8.75,0,*54
1522670623.25,34921,9.44,72420.8,-8.23,-8.93,-8.89,0,*5F
1522670624.48,34922,9.44,72430.3,-8.23,-8.93,-8.89,0,*5C
1522670625.71,34923,9.44,72414.3,-8.21,-8.93,-8.81,0,*57
1522670626.94,34924,9.44,72408.0,-8.23,-8.93,-8.89,0,*5A
1522670628.17,34925,9.44,72404.5,-8.23,-8.89,-8.89,0,*50
1522670629.38,34926,9.44,72416.0,-8.21,-9.01,-8.93,0,*5B
1522670630.59,34927,9.44,72406.0,-8.21,-9.01,-8.89,0,*51
1522670631.82,34928,9.44,72408.8,-8.23,-9.05,-9.01,0,*59
1522670633.03,34929,9.44,72408.5,-8.21,-9.05,-9.05,0,*5E
1522670634.24,34930,9.44,72412.8,-8.21,-9.01,-9.01,0,*56
1522670635.47,34931,9.44,72410.0,-8.23,-8.93,-8.89,0,*5E
1522670636.7,34932,9.44,72404.8,-8.23,-9.05,-8.93,0,*58
1522670637.91,34933,9.44,72400.0,-8.21,-9.01,-9.01,0,*55
1522670639.12,34934,9.44,72400.5,-8.21,-9.05,-8.93,0,*5C
1522670640.32,34935,9.44,72402.3,-8.21,-9.05,-8.93,0,*5D
1522670641.52,34936,9.44,72408.8,-8.21,-9.05,-8.93,0,*5E
1522670642.75,34937,9.44,72420.0,-8.23,-9.05,-9.05,0,*53
1522670643.96,34938,9.44,72430.8,-8.21,-9.05,-9.01,0,*5A
1522670645.17,34939,9.44,72426.8,-8.21,-9.05,-9.01,0,*5B
1522670646.4,34940,9.44,72420.0,-8.23,-9.01,-8.93,0,*59
1522670647.61,34941,9.44,72412.5,-8.21,-8.89,-8.89,0,*50
1522670648.84,34942,9.44,72414.8,-8.23,-8.89,-8.75,0,*52
1522670650.08,34943,9.44,72416.5,-8.23,-8.81,-8.75,0,*5B
1522670651.31,34944,9.44,72426.0,-8.23,-8.89,-8.75,0,*54
1522670652.55,34945,9.44,72436.8,-8.23,-8.89,-8.81,0,*5E
1522670653.8,34946,9.44,72436.3,-8.23,-8.89,-8.81,0,*5D
1522670655.01,34947,9.44,72424.5,-8.21,-8.89,-8.75,0,*55
1522670656.25,34948,9.44,72418.0,-8.21,-8.81,-8.81,0,*59
1522670657.5,34949,9.44,72410.8,-8.23,-8.89,-8.81,0,*52
1522670658.75,34950,9.44,72402.5,-8.23,-8.89,-8.81,0,*5A
1522670660.0,34951,9.44,72412.8,-8.23,-8.93,-8.81,0,*50
1522670661.21,34952,9.44,72410.0,-8.21,-8.93,-8.89,0,*59
1522670662.44,34953,9.44,72398.8,-8.23,-8.89,-8.93,0,*5A
1522670663.67,34954,9.44,72396.0,-8.23,-8.93,-8.89,0,*5D
1522670664.88,34955,9.44,72390.3,-8.21,-8.93,-8.93,0,*55
1522670666.08,34956,9.44,72396.0,-8.21,-9.05,-9.01,0,*52
1522670667.34,34957,9.44,72406.5,-8.23,-9.19,-9.11,0,*5D
1522670668.56,34958,9.44,72398.5,-8.23,-9.23,-9.19,0,*53
1522670669.81,34959,9.44,72404.5,-8.23,-9.19,-9.11,0,*53
1522670671.09,34960,9.44,72408.3,-8.23,-9.11,-9.11,0,*51
1522670672.37,34961,9.44,72410.8,-8.23,-9.11,-9.11,0,*50
1522670673.63,34962,9.44,72398.5,-8.23,-9.19,-9.11,0,*5B
1522670674.91,34963,9.44,72420.5,-8.23,-9.11,-9.11,0,*52
1522670676.13,34964,9.44,72426.8,-8.23,-9.23,-9.31,0,*56
1522670677.35,34965,9.44,72430.5,-8.21,-9.45,-9.31,0,*55
1522670678.62,34966,9.44,72420.5,-8.23,-9.45,-9.37,0,*52
1522670679.91,34967,9.44,72422.3,-8.23,-9.11,-9.11,0,*56
1522670681.16,34968,9.44,72422.5,-8.23,-9.05,-9.11,0,*5C
1522670682.37,34969,9.44,72416.3,-8.21,-9.01,-9.01,0,*5A
1522670683.6,34970,9.44,72418.0,-8.23,-9.05,-8.93,0,*5E
1522670684.83,34971,9.44,72408.5,-8.23,-9.01,-8.89,0,*50
1522670686.06,34972,9.44,72400.5,-8.23,-8.93,-8.75,0,*5A
1522670687.31,34973,9.44,72388.3,-8.23,-8.93,-8.81,0,*50
1522670688.54,34974,9.44,72374.0,-8.23,-8.89,-8.89,0,*54
1522670689.77,34975,9.44,72376.5,-8.23,-8.89,-8.75,0,*56
1522670690.99,34976,9.44,72370.3,-8.23,-8.89,-8.75,0,*55
1522670692.24,34977,9.44,72364.5,-8.23,-8.89,-8.81,0,*5F
1522670693.47,34978,9.44,72356.0,-8.23,-9.05,-9.05,0,*58
1522670694.73,34979,9.44,72362.3,-8.23,-9.11,-9.05,0,*5C
1522670695.98,34980,9.44,72352.8,-8.23,-9.19,-9.11,0,*57
1522670697.17,34981,9.44,72354.0,-8.25,-9.27,-9.23,0,*5C
1522670698.45,34982,9.44,72364.8,-8.23,-9.37,-9.37,0,*5D
1522670699.7,34983,9.44,72384.3,-8.23,-9.37,-9.23,0,*59
1522670700.92,34984,9.44,72390.8,-8.23,-9.31,-9.31,0,*5B
1522670702.17,34985,9.44,72392.8,-8.23,-9.45,-9.31,0,*59
1522670703.45,34986,9.44,72408.8,-8.23,-9.37,-9.37,0,*59
1522670704.67,34987,9.44,72416.3,-8.23,-9.31,-9.23,0,*5B
1522670705.9,34988,9.44,72422.8,-8.25,-9.41,-9.27,0,*51
1522670707.15,34989,9.44,72430.3,-8.25,-9.41,-9.37,0,*51
1522670708.37,34990,9.44,72434.8,-8.25,-9.23,-9.15,0,*5D
1522670709.63,34991,9.44,72446.8,-8.25,-9.15,-9.11,0,*5D
1522670710.83,34992,9.44,72440.8,-8.25,-9.05,-9.05,0,*5A
1522670712.03,34993,9.44,72422.8,-8.25,-9.05,-8.97,0,*51
1522670713.23,34994,9.44,72416.0,-8.25,-8.97,-8.97,0,*5C
1522670714.43,34995,9.44,72408.0,-8.25,-8.97,-8.97,0,*5D
1522670715.62,34996,9.44,72416.3,-8.25,-8.97,-8.93,0,*5A
1522670716.83,34997,9.44,72418.3,-8.25,-8.93,-8.93,0,*5F
1522670718.03,34998,9.44,72422.3,-8.25,-8.93,-8.93,0,*50
1522670719.25,34999,9.44,72416.5,-8.25,-8.97,-8.81,0,*56
1522670720.49,35000,9.44,72414.5,-8.23,-8.89,-8.81,0,*57
1522670721.71,35001,9.44,72422.5,-8.23,-8.75,-8.75,0,*5E
1522670722.98,35002,9.44,72418.0,-8.23,-8.81,-8.81,0,*5D
1522670724.21,35003,9.44,72400.5,-8.23,-8.89,-8.75,0,*5F
1522670725.45,35004,9.44,72408.8,-8.23,-8.81,-8.75,0,*50
1522670726.71,35005,9.44,72402.3,-8.23,-8.81,-8.81,0,*5A
1522670727.98,35006,9.44,72400.5,-8.23,-8.81,-8.81,0,*59
1522670729.22,35007,9.44,72396.8,-8.23,-8.81,-8.75,0,*53
1522670730.46,35008,9.44,72402.8,-8.23,-8.81,-8.75,0,*5C
1522670731.7,35009,9.44,72384.8,-8.23,-8.81,-8.75,0,*5D
1522670732.92,35010,9.44,72348.8,-8.23,-8.75,-8.75,0,*5E
1522670734.17,35011,9.44,72364.0,-8.23,-8.81,-8.75,0,*54
1522670735.37,35012,9.44,72392.3,-8.21,-8.89,-8.75,0,*5D
1522670736.62,35013,9.44,72388.0,-8.23,-8.89,-8.81,0,*55
1522670737.83,35014,9.44,72396.3,-8.21,-8.93,-8.89,0,*53
1522670739.06,35015,9.44,72386.0,-8.23,-8.93,-8.89,0,*50
1522670740.29,35016,9.44,72378.0,-8.23,-9.01,-8.89,0,*59
1522670741.52,35017,9.44,72388.5,-8.23,-9.01,-8.93,0,*53
1522670742.76,35018,9.44,72400.0,-8.23,-9.01,-8.93,0,*5C
1522670743.98,35019,9.44,72402.5,-8.23,-9.05,-8.93,0,*59
1522670745.22,35020,9.44,72400.8,-8.23,-9.05,-9.01,0,*59
1522670746.45,35021,9.44,72408.3,-8.23,-9.01,-8.89,0,*5D
1522670747.68,35022,9.44,72400.5,-8.23,-8.93,-8.89,0,*54
1522670748.91,35023,9.44,72412.8,-8.23,-9.01,-8.93,0,*54
1522670750.15,35024,9.44,72414.5,-8.23,-9.05,-9.01,0,*5D
1522670751.38,35025,9.44,72418.0,-8.23,-9.01,-9.01,0,*58
1522670752.61,35026,9.44,72424.0,-8.23,-9.01,-8.93,0,*51
1522670753.82,35027,9.44,72420.3,-8.21,-8.93,-8.89,0,*53
1522670755.07,35028,9.44,72420.0,-8.23,-8.89,-8.81,0,*5D
1522670756.3,35029,9.44,72424.5,-8.23,-8.93,-8.75,0,*5C
1522670757.52,35030,9.44,72418.8,-8.23,-8.89,-8.75,0,*5F
1522670758.77,35031,9.44,72418.8,-8.23,-8.89,-8.81,0,*55
1522670760.0,35032,9.5,72438.5,-8.23,-8.89,-8.75,0,*5D
1522670761.22,35033,9.44,72430.0,-8.23,-8.89,-8.75,0,*5C
1522670762.43,35034,9.44,72418.3,-8.21,-8.89,-8.75,0,*59
1522670763.67,35035,9.44,72422.8,-8.23,-8.89,-8.81,0,*51
1522670764.9,35036,9.44,72406.3,-8.23,-8.89,-8.75,0,*59
1522670766.13,35037,9.44,72442.0,-8.21,-8.93,-8.81,0,*5A
1522670767.35,35038,9.44,72446.5,-8.23,-8.93,-8.75,0,*5C
1522670768.58,35039,9.44,72444.8,-8.21,-8.89,-8.81,0,*5F
1522670769.83,35040,9.44,72432.0,-8.23,-8.89,-8.81,0,*53
1522670771.06,35041,9.44,72430.8,-8.23,-8.89,-8.89,0,*5A
1522670772.31,35042,9.44,72404.8,-8.23,-8.89,-8.81,0,*51
1522670773.54,35043,9.44,72384.5,-8.23,-9.01,-8.93,0,*52
1522670774.77,35044,9.44,72386.5,-8.23,-9.05,-8.93,0,*51
1522670775.97,35045,9.44,72364.3,-8.21,-9.05,-9.05,0,*5C
1522670777.18,35046,9.44,72384.8,-8.21,-9.05,-9.01,0,*5B
1522670778.41,35047,9.44,72400.0,-8.23,-9.05,-9.01,0,*58
1522670779.65,35048,9.44,72392.0,-8.23,-9.01,-9.01,0,*53
1522670780.85,35049,9.44,72400.3,-8.21,-9.05,-9.05,0,*50
1522670782.08,35050,9.44,72388.3,-8.23,-9.05,-9.05,0,*5A
1522670783.31,35051,9.44,72406.8,-8.23,-9.05,-8.93,0,*55
1522670784.54,35052,9.44,72426.0,-8.23,-8.93,-8.89,0,*53
1522670785.77,35053,9.44,72432.3,-8.23,-8.93,-8.93,0,*59
1522670786.98,35054,9.44,72402.0,-8.21,-8.89,-8.89,0,*5C
1522670788.21,35055,9.44,72414.8,-8.23,-8.93,-8.93,0,*5F
1522670789.46,35056,9.44,72430.8,-8.23,-8.93,-8.81,0,*5F
1522670790.72,35057,9.44,72434.5,-8.23,-9.11,-9.01,0,*5C
1522670791.95,35058,9.44,72422.8,-8.23,-9.19,-9.19,0,*52
1522670793.14,35059,9.44,72432.3,-8.21,-9.23,-9.19,0,*58
1522670794.4,35060,9.44,72426.3,-8.23,-9.11,-9.19,0,*51
1522670795.68,35061,9.44,72428.3,-8.23,-9.11,-9.11,0,*58
1522670796.88,35062,9.5,72414.0,-8.21,-9.05,-9.05,0,*59
1522670798.12,35063,9.44,72410.8,-8.23,-9.05,-9.01,0,*5E
1522670799.35,35064,9.44,72410.3,-8.23,-9.05,-9.01,0,*59
1522670800.6,35065,9.44,72400.3,-8.25,-9.11,-9.11,0,*5A
1522670801.8,35066,9.44,72416.3,-8.25,-9.05,-9.05,0,*59
1522670803.01,35067,9.44,72400.5,-8.25,-8.93,-8.93,0,*58
1522670804.21,35068,9.44,72414.5,-8.25,-9.05,-8.93,0,*59
1522670805.44,35069,9.44,72420.5,-8.25,-9.11,-9.05,0,*53
1522670806.67,35070,9.44,72424.8,-8.23,-9.05,-9.01,0,*5C
1522670807.9,35071,9.44,72414.5,-8.25,-9.11,-9.05,0,*5A
1522670809.1,35072,9.44,72416.5,-8.25,-9.05,-8.93,0,*52
1522670810.33,35073,9.44,72428.3,-8.25,-9.11,-8.97,0,*52
1522670811.53,35074,9.44,72428.0,-8.25,-9.05,-8.97,0,*50
1522670812.78,35075,9.44,72426.0,-8.25,-9.11,-9.11,0,*5B
1522670813.98,35076,9.44,72428.3,-8.25,-9.27,-9.23,0,*5C
1522670815.18,35077,9.44,72440.0,-8.25,-9.23,-9.27,0,*5D
1522670816.4,35078,9.44,72426.8,-8.25,-9.23,-9.15,0,*53
1522670817.62,35079,9.44,72428.8,-8.25,-9.23,-9.15,0,*52
1522670818.88,35080,9.44,72430.5,-8.25,-9.15,-9.15,0,*51
1522670820.1,35081,9.44,72448.3,-8.25,-9.23,-9.15,0,*55
1522670821.32,35082,9.5,72434.5,-8.25,-9.23,-9.15,0,*56
1522670822.54,35083,9.44,72414.8,-8.25,-9.23,-9.15,0,*57
1522670823.79,35084,9.5,72416.0,-8.25,-9.15,-9.15,0,*55
1522670825.02,35085,9.44,72362.0,-8.25,-9.23,-9.15,0,*51
1522670826.27,35086,9.44,72330.0,-8.25,-9.15,-9.15,0,*57
1522670827.55,35087,9.44,72348.0,-8.27,-9.15,-9.11,0,*50
1522670828.81,35088,9.44,72366.8,-8.25,-9.15,-9.11,0,*5D
1522670830.06,35089,9.5,72384.5,-8.25,-9.15,-9.11,0,*5C
1522670831.26,35090,9.5,72378.3,-8.25,-9.23,-9.23,0,*50
1522670832.49,35091,9.44,72388.8,-8.25,-9.37,-9.27,0,*50
1522670833.74,35092,9.44,72398.3,-8.25,-9.41,-9.41,0,*52
1522670834.98,35093,9.44,72422.5,-8.25,-9.61,-9.49,0,*59
1522670836.25,35094,9.44,72414.5,-8.27,-9.49,-9.41,0,*5E
1522670837.52,35095,9.44,72420.8,-8.27,-9.61,-9.53,0,*56
1522670838.76,35096,9.44,72426.5,-8.25,-9.53,-9.41,0,*55
1522670840.0,35097,9.44,72426.5,-8.25,-9.61,-9.49,0,*5D
1522670841.25,35098,9.44,72442.5,-8.27,-9.75,-9.61,0,*5F
1522670842.52,35099,9.44,72466.5,-8.27,-9.53,-9.53,0,*5B
1522670843.79,35100,9.44,72440.3,-8.27,-9.61,-9.61,0,*5A
1522670845.01,35101,9.44,72436.8,-8.25,-9.67,-9.61,0,*5F
1522670846.28,35102,9.44,72452.0,-8.27,-9.61,-9.53,0,*59
1522670847.53,35103,9.5,72452.8,-8.25,-9.41,-9.41,0,*5B
1522670848.75,35104,9.44,72448.5,-8.27,-9.27,-9.27,0,*5E
1522670849.99,35105,9.44,72456.8,-8.27,-9.23,-9.15,0,*5A
1522670851.27,35106,9.44,72424.5,-8.27,-9.15,-9.15,0,*5C
1522670852.52,35107,9.5,72420.8,-8.27,-9.23,-9.11,0,*5C
1522670853.78,35108,9.44,72418.5,-8.29,-9.15,-9.15,0,*5C
1522670855.0,35109,9.5,72416.3,-8.29,-9.27,-9.15,0,*5C
1522670856.23,35110,9.44,72404.3,-8.29,-9.27,-9.15,0,*54
1522670857.43,35111,9.44,72418.8,-8.29,-9.31,-9.19,0,*5E
1522670858.66,35112,9.44,72438.8,-8.29,-9.41,-9.27,0,*57
1522670859.88,35113,9.44,72454.0,-8.33,-9.41,-9.27,0,*5D
1522670861.11,35114,9.44,72450.8,-8.29,-9.45,-9.27,0,*55
1522670862.36,35115,9.44,72448.5,-8.29,-9.45,-9.41,0,*54
1522670863.58,35116,9.5,72458.3,-8.29,-9.53,-9.31,0,*57
1522670864.78,35117,9.5,72438.3,-8.29,-9.31,-9.27,0,*55
1522670865.98,35118,9.44,72440.8,-8.29,-9.27,-9.27,0,*5D
1522670867.18,35119,9.5,72438.3,-8.33,-9.19,-9.27,0,*5A
1522670868.38,35120,9.44,72436.3,-8.29,-9.27,-9.19,0,*5B
1522670869.58,35121,9.44,72430.5,-8.29,-9.27,-9.19,0,*5A
1522670870.78,35122,9.44,72434.8,-8.29,-9.31,-9.19,0,*5E
1522670871.99,35123,9.44,72436.0,-8.29,-9.27,-9.27,0,*55
1522670873.18,35124,9.44,72444.0,-8.33,-9.31,-9.19,0,*53
1522670874.38,35125,9.44,72458.3,-8.29,-9.27,-9.19,0,*5E
1522670875.58,35126,9.44,72448.0,-8.33,-9.31,-9.19,0,*51
1522670876.78,35127,9.44,72458.8,-8.29,-9.27,-9.19,0,*5C
1522670877.98,35128,9.5,72476.8,-8.29,-9.27,-9.19,0,*53
1522670879.19,35129,9.44,72474.5,-8.29,-9.19,-9.27,0,*52
1522670880.41,35130,9.44,72470.3,-8.29,-9.19,-9.15,0,*5B
1522670881.63,35131,9.44,72470.5,-8.33,-9.19,-9.15,0,*51
1522670882.86,35132,9.5,72466.8,-8.29,-9.19,-9.15,0,*59
1522670884.1,35133,9.5,72462.3,-8.33,-9.15,-9.01,0,*5A
1522670885.36,35134,9.44,72456.3,-8.29,-9.15,-9.11,0,*57
1522670886.59,35135,9.5,72458.0,-8.33,-9.15,-9.01,0,*5C
1522670887.83,35136,9.5,72458.5,-8.29,-9.11,-9.01,0,*50
1522670889.06,35137,9.5,72458.8,-8.29,-9.11,-9.01,0,*51
1522670890.29,35138,9.44,72456.8,-8.29,-9.11,-8.97,0,*50
1522670891.52,35139,9.44,72448.5,-8.29,-9.11,-8.97,0,*51
1522670892.73,35140,9.5,72442.3,-8.29,-9.01,-8.89,0,*51
1522670893.94,35141,9.44,72440.0,-8.33,-9.01,-8.97,0,*54
1522670895.17,35142,9.5,72438.3,-8.29,-9.15,-8.97,0,*59
1522670896.41,35143,9.5,72432.0,-8.29,-9.15,-9.01,0,*56
1522670897.65,35144,9.5,72424.0,-8.29,-9.15,-9.01,0,*51
1522670898.88,35145,9.44,72456.3,-8.29,-9.11,-8.97,0,*5A
1522670900.14,35146,9.5,72450.8,-8.29,-9.15,-9.11,0,*52
1522670901.4,35147,9.44,72448.8,-8.29,-9.15,-9.11,0,*53
1522670902.66,35148,9.44,72464.0,-8.29,-9.15,-9.15,0,*58
1522670903.86,35149,9.44,72466.8,-8.33,-9.27,-9.27,0,*52
1522670905.06,35150,9.44,72462.8,-8.29,-9.19,-9.19,0,*51
1522670906.29,35151,9.44,72466.3,-8.29,-9.41,-9.19,0,*5D
1522670907.49,35152,9.44,72466.8,-8.29,-9.31,-9.27,0,*54
1522670908.69,35153,9.44,72462.5,-8.29,-9.27,-9.19,0,*5F
1522670909.89,35154,9.44,72464.3,-8.29,-9.31,-9.27,0,*52
1522670911.11,35155,9.44,72470.5,-8.33,-9.41,-9.31,0,*58
1522670912.33,35156,9.5,72474.0,-8.29,-9.45,-9.31,0,*54
1522670913.52,35157,9.44,72472.8,-8.33,-9.31,-9.31,0,*5D
1522670914.75,35158,9.44,72472.3,-8.29,-9.41,-9.27,0,*59
1522670915.98,35159,9.44,72458.3,-8.29,-9.41,-9.19,0,*55
1522670917.21,35160,9.5,72454.5,-8.33,-9.41,-9.27,0,*59
1522670918.42,35161,9.5,72430.0,-8.33,-9.45,-9.31,0,*5B
1522670919.65,35162,9.44,72386.0,-8.33,-9.71,-9.57,0,*5F